Terminal Aerodrome Forecast
Issued by NWS Sioux Falls, SD

Home | Current Version | Previous Version | Text Only | Print | Product List | Glossary On
Versions: 1 2 3 4 5 6 7 8 9 10 11 12 13 14 15 16 17 18
000
FTUS43 KFSD 061720
TAFFSD
TAF
KFSD 061720Z 0618/0718 36017G24KT 5SM FU SCT025 BKN070
      TEMPO 0618/0620 BKN025
     FM062000 36017G24KT 5SM FU SCT035 BKN050
     FM070100 01008KT 6SM FU SKC
     FM070900 01004KT 5SM FU SKC
     FM071500 03007KT P6SM SKC=

USA.gov is the U.S. government's official web portal to all federal, state and local government web resources and services.